This is the latest recevied weather packets stored in our database for station/object WY1B. If no packets are shown the sender has not sent any weather packets the latest 10 day(s).
| Time | Temp. | Humidity | Pressure | Rain* | Wind** | Luminosity | Snow |
|---|---|---|---|---|---|---|---|
| 1787638208 | 33.33° C | 36% | 1004.9 hPa | 0 mm | - | 0 W/m² | - |
| 1787637903 | 33.33° C | 33% | 1005.1 hPa | 0 mm | - | 0 W/m² | - |
| 1787637603 | 33.89° C | 32% | 1005.2 hPa | 0 mm | - | 0 W/m² | - |
| 1787637298 | 33.89° C | 32% | 1005 hPa | 0 mm | - | 0 W/m² | - |
| 1787636997 | 33.89° C | 32% | 1005.1 hPa | 0 mm | - | 0 W/m² | - |
| 1787636697 | 33.89° C | 31% | 1005.1 hPa | 0 mm | - | 0 W/m² | - |
| 1787636391 | 33.89° C | 31% | 1005.1 hPa | 0 mm | - | 0 W/m² | - |
| 1787636087 | 33.89° C | 30% | 1005.1 hPa | 0 mm | - | 0 W/m² | - |
| 1787635787 | 33.89° C | 31% | 1005 hPa | 0 mm | - | 0 W/m² | - |
| 1787635484 | 33.89° C | 31% | 1005.2 hPa | 0 mm | - | 0 W/m² | - |
| 1787635183 | 33.33° C | 33% | 1005 hPa | 0 mm | - | 0 W/m² | - |
| 1787634879 | 33.33° C | 33% | 1005.2 hPa | 0 mm | - | 0 W/m² | - |
| 1787634574 | 33.33° C | 36% | 1005.1 hPa | 0 mm | - | 0 W/m² | - |
| 1787634269 | 33.89° C | 35% | 1005.2 hPa | 0 mm | - | 0 W/m² | - |
| 1787633965 | 33.33° C | 34% | 1005.1 hPa | 0 mm | - | 0 W/m² | - |
| 1787633661 | 33.89° C | 33% | 1005.5 hPa | 0 mm | - | 0 W/m² | - |
| 1787633357 | 33.89° C | 33% | 1005.4 hPa | 0 mm | - | 0 W/m² | - |
| 1787633053 | 33.89° C | 35% | 1005.2 hPa | 0 mm | - | 0 W/m² | - |
| 1787632749 | 33.89° C | 32% | 1005.4 hPa | 0 mm | - | 0 W/m² | - |
| 1787632444 | 33.89° C | 35% | 1005.1 hPa | 0 mm | - | 0 W/m² | - |
| 1787632143 | 33.89° C | 32% | 1005 hPa | 0 mm | - | 0 W/m² | - |
| 1787631839 | 33.89° C | 39% | 1005.4 hPa | 0 mm | - | 0 W/m² | - |
| 1787631535 | 33.89° C | 32% | 1005.1 hPa | 0 mm | - | 0 W/m² | - |
| 1787631231 | 34.44° C | 33% | 1005.1 hPa | 0 mm | - | 0 W/m² | - |
| 1787630930 | 34.44° C | 37% | 1005.1 hPa | 0 mm | - | 0 W/m² | - |
* Rain latest hour (hover to see other rain measurements)
** Current wind speed in m/s (hover to see current wind gust speed)